Список аэропортов
Фактическая погода:

26 июня, 23:00
Температура: +14°C (+13.8*)
Ветер: западный 2 м/с
Давление: *762 мм
Без существ. явл.
Время (МСК)Темп. СВетерВлажностьДавлениеОблачностьОсадки
21:00+17ЮЗ, 1 м/с81%1017 гПаоблачносл. дождь
22:00+17СЗ, 1 м/с79%1016 гПаоблачно
23:00+16С, 1 м/с86%1016 гПаоблачно
27 июня
00:00+15СВ, 1 м/с94%1015 гПас прояснениями
01:00+14СВ, 1 м/с97%1015 гПас прояснениями
02:00+13СВ, 1 м/с98%1014 гПас прояснениями
03:00+13СВ, 1 м/с98%1014 гПас прояснениями
04:00+14СВ, 2 м/с97%1013 гПаоблачносл. дождь
05:00+14СВ, 2 м/с94%1012 гПаоблачно
06:00+14В, 2 м/с91%1011 гПаоблачно
07:00+14В, 4 м/с87%1010 гПаоблачно
08:00+16В, 4 м/с82%1009 гПамалооблачно
09:00+17В, 6 м/с63%1008 гПас прояснениямисл. дождь
10:00+18В, 6 м/с59%1006 гПаоблачносл. дождь
11:00+18В, 7 м/с59%1005 гПаоблачнодождь
12:00+16В, 5 м/с72%1004 гПаоблачнодождь
13:00+16В, 6 м/с77%1003 гПаоблачносл. дождь
14:00+17В, 7 м/с76%1001 гПаоблачно
15:00+18В, 9 м/с69%1000 гПаоблачносл. дождь
16:00+18В, 8 м/с72%998 гПаоблачно
17:00+18В, 7 м/с77%997 гПаоблачно
18:00+18В, 7 м/с79%996 гПаоблачно
19:00+17В, 6 м/с83%994 гПаоблачно
20:00+17В, 5 м/с83%993 гПаоблачно
21:00+17СВ, 6 м/с85%992 гПаоблачно
22:00+17СВ, 5 м/с88%991 гПаоблачносл. дождь
23:00+16СВ, 5 м/с89%990 гПаоблачносл. дождь
28 июня
00:00+16СВ, 3 м/с91%989 гПаоблачно
01:00+16СВ, 2 м/с92%988 гПаоблачно
02:00+16СВ, 1 м/с93%988 гПаоблачно
03:00+16ЮВ, 1 м/с94%987 гПаоблачнодождь
04:00+16Ю, 4 м/с96%986 гПаоблачнодождь
05:00+15Ю, 5 м/с99%986 гПаоблачносл. дождь
06:00+15Ю, 6 м/с98%986 гПаоблачносл. дождь
07:00+14Ю, 6 м/с96%985 гПаоблачносл. дождь
08:00+13Ю, 5 м/с96%985 гПаоблачносл. дождь
09:00+13Ю, 5 м/с95%986 гПаоблачносл. дождь
10:00+12Ю, 5 м/с96%986 гПаоблачносл. дождь
11:00+12Ю, 4 м/с96%986 гПаоблачносл. дождь
12:00+13ЮЗ, 4 м/с97%986 гПаоблачносл. дождь
13:00+12ЮЗ, 5 м/с97%986 гПаоблачносл. дождь
14:00+12ЮЗ, 4 м/с98%987 гПаоблачносл. дождь
15:00+13З, 4 м/с98%987 гПаоблачнодождь
16:00+12З, 6 м/с97%987 гПаоблачнодождь
17:00+12З, 6 м/с97%987 гПаоблачносл. дождь
18:00+12З, 6 м/с97%988 гПаоблачносл. дождь
19:00+11З, 7 м/с96%988 гПаоблачносл. дождь
20:00+12З, 6 м/с95%988 гПаоблачносл. дождь
21:00+12З, 6 м/с96%989 гПаоблачно